Location: Grasslands National Park East Block
(49.0708°N, 106.5295°W)
Time: 00:42:44
(UTC-06:00)

Vanguard 1 Rocket - Pass Details

Date: 29 September 2019
Orbit: 650 x 4226 km, 34.3° (Epoch: 13 October)

Event Time Altitude Azimuth Distance (km) Brightness Sun altitude
Rises 12:26:59 0° 167° (SSE) 7,824 13.1 38.0°
Reaches altitude 10° 12:38:58 10° 141° (SE) 7,326 12.9 38.3°
Maximum altitude 12:46:04 12° 125° (SE) 7,257 12.6 38.4°
Drops below altitude 10° 12:53:07 10° 109° (ESE) 7,368 12.3 38.4°
Sets 13:04:52 0° 85° (E) 7,951 12.1 38.4°
